User: anonymous
Location: Unspecified
(0.0000°N, 0.0000°E)
Time: 22:18:38
(UTC+02:00)
Language:

Milstar 3 - Orbit

View from above orbital plane
View from above orbital plane
View from above satellite
View from above satellite

Ground track
Ground track

The orbit data is extracted from the following two-line orbital elements,

1 25724U 99023A   14262.06393284 0.00000000  00000-0  00000-0 0    06
2 25724  28.2146 163.8482 2127299   3.5840 356.4155  9.37440194    09
Epoch (UTC): 19 September 2014 01:32:03
Eccentricity: 0.2127299
inclination: 28.2146°
perigee height: 1102 km
apogee height: 5144 km
right ascension of ascending node: 163.8482°
argument of perigee: 3.5840°
revolutions per day: 9.37440194
mean anomaly at epoch: 356.4155°
orbit number at epoch: 0

The dashed part of the orbit path shows where the satellite is in the earth's shadow,  

DLR